FW6908 Weather Reports


time (UTC)temp
C
wind
direction
speed
KPH
gust
KPH
rain 1hr
cm
rain 24hr
cm
rain mn
cm
humidity
%
barometer
mb
20260509195018 18 16 4.8 8.0 0.00 0.00 0.00 67 1016.3
20260509194523 19 321 1.6 4.8 0.00 0.00 0.00 67 1016.1
20260509194018 19 234 1.6 3.2 0.00 0.00 0.00 67 1016.1
20260509193519 19 232 0.0 3.2 0.00 0.00 0.00 67 1016.1
20260509193019 19 202 0.0 3.2 0.00 0.00 0.00 67 1016.1
20260509192518 19 190 0.0 3.2 0.00 0.00 0.00 67 1016.2
20260509192017 19 189 0.0 0.0 0.00 0.00 0.00 67 1016.1
20260509191518 19 189 0.0 0.0 0.00 0.00 0.00 67 1016.2
20260509191017 19 189 0.0 0.0 0.00 0.00 0.00 67 1016.2
20260509190517 19 189 0.0 3.2 0.00 0.00 0.00 67 1016.3
20260509190019 19 189 0.0 3.2 0.00 0.00 0.00 67 1016.2
20260509185517 19 191 1.6 3.2 0.00 0.00 0.00 67 1016.1
20260509185017 19 191 1.6 4.8 0.00 0.00 0.00 67 1016.2
20260509184517 19 191 0.0 4.8 0.00 0.00 0.00 67 1016.2
20260509184016 19 191 1.6 9.7 0.00 0.00 0.00 66 1016.2
20260509183517 19 192 3.2 11.3 0.00 0.00 0.00 66 1016.1
20260509183023 20 180 3.2 8.0 0.00 0.00 0.00 66 1016.0
20260509182515 20 259 4.8 11.3 0.00 0.00 0.00 65 1016.1
20260509182015 20 238 6.4 11.3 0.00 0.00 0.00 65 1016.0
20260509181515 20 245 4.8 11.3 0.00 0.00 0.00 65 1016.0
20260509181015 20 259 6.4 11.3 0.00 0.00 0.00 65 1015.9
20260509180518 20 263 6.4 14.5 0.00 0.00 0.00 64 1015.8
20260509180015 20 269 9.7 14.5 0.00 0.00 0.00 64 1015.7
20260509175514 20 259 8.0 12.9 0.00 0.00 0.00 63 1015.6
20260509175014 20 271 8.0 12.9 0.00 0.00 0.00 63 1015.5
20260509174515 20 257 8.0 14.5 0.00 0.00 0.00 63 1015.5
20260509174015 20 277 9.7 17.7 0.00 0.00 0.00 63 1015.4
20260509173514 20 284 11.3 17.7 0.00 0.00 0.00 62 1015.4
20260509173022 20 269 8.0 16.1 0.00 0.00 0.00 62 1015.3
20260509172513 20 258 9.7 16.1 0.00 0.00 0.00 61 1015.2
20260509172013 20 264 11.3 19.3 0.00 0.00 0.00 60 1015.2
20260509171513 20 240 12.9 19.3 0.00 0.00 0.00 60 1015.2
20260509171013 20 247 12.9 19.3 0.00 0.00 0.00 60 1015.2
20260509170512 20 285 11.3 19.3 0.00 0.00 0.00 59 1015.2
20260509170013 20 259 11.3 19.3 0.00 0.00 0.00 58 1015.3
20260509165512 20 268 12.9 17.7 0.00 0.00 0.00 57 1015.3
20260509165014 20 254 11.3 19.3 0.00 0.00 0.00 58 1015.3
20260509164512 20 259 12.9 22.5 0.00 0.00 0.00 57 1015.0
20260509164011 21 264 14.5 22.5 0.00 0.00 0.00 56 1015.0
20260509163515 21 263 16.1 22.5 0.00 0.00 0.00 56 1015.2
20260509163011 21 264 12.9 22.5 0.00 0.00 0.00 55 1015.2
20260509162511 21 270 12.9 20.9 0.00 0.00 0.00 54 1015.2
20260509162013 21 247 12.9 20.9 0.00 0.00 0.00 53 1015.1
20260509161511 21 261 12.9 20.9 0.00 0.00 0.00 53 1015.1
20260509161010 21 248 14.5 22.5 0.00 0.00 0.00 52 1015.0
20260509160513 21 261 17.7 22.5 0.00 0.00 0.00 52 1015.1
20260509160010 21 238 16.1 22.5 0.00 0.00 0.00 51 1015.0
20260509155507 22 255 14.5 20.9 0.00 0.00 0.00 51 1014.8
20260509155007 22 262 16.1 20.9 0.00 0.00 0.00 50 1014.8
20260509154505 22 275 14.5 25.7 0.00 0.00 0.00 50 1014.9
20260509154007 22 283 19.3 25.7 0.00 0.00 0.00 49 1015.1
20260509153501 22 252 12.9 24.1 0.00 0.00 0.00 48 1014.9
20260509153001 22 293 17.7 25.7 0.00 0.00 0.00 47 1014.9
20260509152600 22 262 16.1 27.4 0.00 0.00 0.00 47 1014.8
20260509152059 22 264 19.3 27.4 0.00 0.00 0.00 46 1014.8
20260509151559 22 244 14.5 24.1 0.00 0.00 0.00 45 1014.8
20260509151058 23 260 14.5 24.1 0.00 0.00 0.00 44 1014.8
20260509150557 23 234 12.9 24.1 0.00 0.00 0.00 40 1014.7
20260509150056 23 271 14.5 22.5 0.00 0.00 0.00 42 1014.8
20260509145555 23 232 11.3 20.9 0.00 0.00 0.00 40 1014.8
20260509145055 23 241 14.5 22.5 0.00 0.00 0.00 41 1014.8
20260509144554 23 251 16.1 22.5 0.00 0.00 0.00 41 1014.9
20260509144054 23 251 14.5 20.9 0.00 0.00 0.00 39 1014.9
20260509143553 23 219 12.9 20.9 0.00 0.00 0.00 38 1014.9
20260509143053 23 243 11.3 20.9 0.00 0.00 0.00 38 1014.8
20260509142552 23 233 14.5 25.7 0.00 0.00 0.00 39 1014.9
20260509142051 23 207 12.9 24.1 0.00 0.00 0.00 37 1014.8
20260509141554 23 255 16.1 24.1 0.00 0.00 0.00 37 1014.9
20260509141050 24 259 14.5 22.5 0.00 0.00 0.00 36 1015.0
20260509140548 24 225 11.3 22.5 0.00 0.00 0.00 36 1015.0
20260509140055 24 171 8.0 22.5 0.00 0.00 0.00 35 1015.0
20260509135547 23 221 16.1 30.6 0.00 0.00 0.00 37 1014.9
20260509135046 24 252 17.7 27.4 0.00 0.00 0.00 37 1015.0
20260509134648 24 243 12.9 22.5 0.00 0.00 0.00 37 1015.0
20260509134044 24 195 8.0 22.5 0.00 0.00 0.00 37 1015.1
20260509133543 23 270 17.7 25.7 0.00 0.00 0.00 37 1015.2
20260509133042 23 260 17.7 25.7 0.00 0.00 0.00 38 1015.1
20260509132545 24 270 17.7 24.1 0.00 0.00 0.00 37 1015.2
20260509132043 24 202 11.3 20.9 0.00 0.00 0.00 37 1015.1
20260509131540 24 218 12.9 25.7 0.00 0.00 0.00 37 1015.2
20260509131039 24 165 9.7 25.7 0.00 0.00 0.00 39 1015.2
20260509130540 24 234 16.1 27.4 0.00 0.00 0.00 39 1015.3
20260509130038 24 218 17.7 27.4 0.00 0.00 0.00 38 1015.3
20260509125536 24 249 16.1 22.5 0.00 0.00 0.00 38 1015.4
20260509125038 24 205 11.3 25.7 0.00 0.00 0.00 38 1015.4
20260509124536 24 267 17.7 27.4 0.00 0.00 0.00 39 1015.6
20260509124035 25 252 12.9 29.0 0.00 0.00 0.00 38 1015.6
20260509123537 24 180 14.5 29.0 0.00 0.00 0.00 38 1015.6
20260509123034 24 219 9.7 22.5 0.00 0.00 0.00 39 1015.7
20260509122532 24 252 14.5 24.1 0.00 0.00 0.00 39 1015.6
20260509122032 24 217 17.7 25.7 0.00 0.00 0.00 38 1015.7
20260509121536 24 234 16.1 29.0 0.00 0.00 0.00 39 1015.7
20260509121031 23 259 20.9 29.0 0.00 0.00 0.00 39 1015.7
20260509120531 24 225 16.1 33.8 0.00 0.00 0.00 39 1015.7
20260509120030 24 257 16.1 32.2 0.00 0.00 0.00 39 1015.6
20260509115528 24 223 17.7 32.2 0.00 0.00 0.00 41 1015.6
20260509115028 23 278 22.5 32.2 0.00 0.00 0.00 41 1015.6
20260509114529 23 238 20.9 32.2 0.00 0.00 0.00 42 1015.6
20260509114028 24 224 17.7 33.8 0.00 0.00 0.00 42 1015.6
20260509113527 23 210 22.5 33.8 0.00 0.00 0.00 41 1015.8
20260509113028 23 174 14.5 29.0 0.00 0.00 0.00 41 1015.8
20260509112525 23 236 17.7 27.4 0.00 0.00 0.00 43 1015.8
20260509112126 23 228 20.9 32.2 0.00 0.00 0.00 41 1016.0
20260509111524 23 221 17.7 32.2 0.00 0.00 0.00 41 1015.9
20260509111025 23 221 19.3 32.2 0.00 0.00 0.00 42 1016.0
20260509110524 23 289 20.9 29.0 0.00 0.00 0.00 42 1015.9
20260509110025 23 271 16.1 27.4 0.00 0.00 0.00 43 1016.0
20260509105526 23 223 11.3 30.6 0.00 0.00 0.00 43 1016.0
20260509105024 23 208 17.7 30.6 0.00 0.00 0.00 43 1016.0
20260509104534 23 238 16.1 25.7 0.00 0.00 0.00 43 1016.0
20260509104021 23 203 16.1 25.7 0.00 0.00 0.00 43 1016.0
20260509103521 23 211 17.7 27.4 0.00 0.00 0.00 43 1016.0
20260509103021 23 205 12.9 37.0 0.00 0.00 0.00 43 1016.0
20260509102520 23 192 19.3 37.0 0.00 0.00 0.00 40 1016.0
20260509102019 23 254 17.7 29.0 0.00 0.00 0.00 40 1016.0
20260509101519 24 219 16.1 29.0 0.00 0.00 0.00 37 1016.1
20260509101021 24 217 14.5 27.4 0.00 0.00 0.00 38 1016.1
20260509100517 23 189 17.7 27.4 0.00 0.00 0.00 37 1016.2
20260509100017 24 215 17.7 30.6 0.00 0.00 0.00 37 1016.2
20260509095516 24 194 16.1 30.6 0.00 0.00 0.00 38 1016.3
20260509095014 23 216 17.7 30.6 0.00 0.00 0.00 39 1016.4
20260509094513 23 252 20.9 27.4 0.00 0.00 0.00 39 1016.4
20260509094012 23 265 17.7 24.1 0.00 0.00 0.00 40 1016.5
20260509093515 24 237 14.5 22.5 0.00 0.00 0.00 40 1016.6
20260509093010 23 221 8.0 22.5 0.00 0.00 0.00 41 1016.5
20260509092508 23 237 12.9 24.1 0.00 0.00 0.00 43 1016.5
20260509092008 23 269 8.0 24.1 0.00 0.00 0.00 45 1016.5
20260509091507 23 254 8.0 20.9 0.00 0.00 0.00 44 1016.4
20260509091008 23 231 11.3 22.5 0.00 0.00 0.00 44 1016.6
20260509090507 23 257 16.1 22.5 0.00 0.00 0.00 45 1016.6
20260509090006 23 246 9.7 19.3 0.00 0.00 0.00 43 1016.7
20260509085504 23 273 11.3 19.3 0.00 0.00 0.00 42 1016.7
20260509085003 23 268 14.5 20.9 0.00 0.00 0.00 41 1016.6
20260509084504 23 186 8.0 17.7 0.00 0.00 0.00 41 1016.6
20260509084001 23 215 6.4 20.9 0.00 0.00 0.00 41 1016.6
20260509083559 23 273 8.0 20.9 0.00 0.00 0.00 41 1016.7
20260509083106 22 243 12.9 17.7 0.00 0.00 0.00 42 1016.7
20260509082558 22 268 12.9 19.3 0.00 0.00 0.00 42 1016.8
20260509082057 22 182 9.7 19.3 0.00 0.00 0.00 43 1016.8
20260509081556 22 275 9.7 17.7 0.00 0.00 0.00 47 1016.8
20260509081055 22 236 8.0 16.1 0.00 0.00 0.00 50 1016.9
20260509080552 22 260 6.4 16.1 0.00 0.00 0.00 52 1016.8
20260509080057 22 240 9.7 16.1 0.00 0.00 0.00 53 1016.7
20260509075552 22 219 6.4 17.7 0.00 0.00 0.00 51 1016.7
20260509075051 22 217 8.0 17.7 0.00 0.00 0.00 50 1016.7
20260509074549 21 252 9.7 16.1 0.00 0.00 0.00 54 1016.7
20260509074049 21 207 4.8 12.9 0.00 0.00 0.00 53 1016.8
20260509073547 21 277 8.0 12.9 0.00 0.00 0.00 54 1016.7
20260509073046 21 244 4.8 11.3 0.00 0.00 0.00 54 1016.8
20260509072548 21 200 3.2 12.9 0.00 0.00 0.00 55 1016.9
20260509072040 21 230 3.2 12.9 0.00 0.00 0.00 54 1016.8
20260509071538 21 255 4.8 9.7 0.00 0.00 0.00 56 1016.8
20260509071037 21 292 4.8 8.0 0.00 0.00 0.00 56 1016.9
20260509070537 21 258 1.6 9.7 0.00 0.00 0.00 56 1016.8
20260509070040 21 269 4.8 9.7 0.00 0.00 0.00 57 1016.9
20260509065536 20 276 3.2 6.4 0.00 0.00 0.00 58 1016.8
20260509065035 21 315 0.0 4.8 0.00 0.00 0.00 59 1016.9
20260509064535 20 317 1.6 4.8 0.00 0.00 0.00 59 1016.8
20260509064033 21 331 1.6 4.8 0.00 0.00 0.00 62 1016.9
20260509063534 20 318 1.6 6.4 0.00 0.00 0.00 62 1016.9
20260509063031 19 266 0.0 9.7 0.00 0.00 0.00 66 1016.7
20260509062530 19 277 3.2 9.7 0.00 0.00 0.00 67 1016.8
20260509062032 19 282 1.6 6.4 0.00 0.00 0.00 67 1016.8
20260509061529 18 272 1.6 6.4 0.00 0.00 0.00 68 1016.8
20260509061031 18 248 1.6 6.4 0.00 0.00 0.00 69 1016.9
20260509060528 18 319 3.2 6.4 0.00 0.00 0.00 69 1016.8
20260509060028 18 329 1.6 8.0 0.00 0.00 0.00 70 1016.8
20260509055529 18 355 1.6 6.4 0.00 0.00 0.00 70 1016.8
20260509055026 18 313 1.6 4.8 0.00 0.00 0.00 71 1016.7
20260509054529 18 350 3.2 4.8 0.00 0.00 0.00 71 1016.8
20260509054025 17 337 1.6 4.8 0.00 0.00 0.00 71 1016.8
20260509053525 17 330 3.2 4.8 0.00 0.00 0.00 70 1016.7
20260509053035 17 294 1.6 4.8 0.00 0.00 0.00 70 1016.7
20260509052525 17 182 1.6 4.8 0.00 0.00 0.00 71 1016.7
20260509052023 17 201 0.0 3.2 0.00 0.00 0.00 71 1016.8
20260509051534 17 250 0.0 3.2 0.00 0.00 0.00 69 1016.8
20260509051021 17 213 1.6 4.8 0.00 0.00 0.00 69 1016.9
20260509050520 17 211 0.0 4.8 0.00 0.00 0.00 69 1016.9
20260509050020 17 213 0.0 3.2 0.00 0.00 0.00 69 1017.0
20260509045519 17 255 0.0 3.2 0.00 0.00 0.00 70 1017.0
20260509045020 17 264 0.0 6.4 0.00 0.00 0.00 70 1017.0
20260509044518 17 269 0.0 6.4 0.00 0.00 0.00 70 1017.0
20260509044017 16 351 0.0 4.8 0.00 0.00 0.00 70 1017.0
20260509043519 16 355 1.6 4.8 0.00 0.00 0.00 70 1017.0
20260509043017 17 333 1.6 4.8 0.00 0.00 0.00 69 1016.9
20260509042517 17 107 0.0 3.2 0.00 0.00 0.00 69 1016.9
20260509042018 16 103 0.0 4.8 0.00 0.00 0.00 70 1016.9
20260509041517 16 96 0.0 6.4 0.00 0.00 0.00 70 1016.9
20260509041016 16 81 3.2 8.0 0.00 0.00 0.00 71 1016.9
20260509040516 16 46 3.2 8.0 0.00 0.00 0.00 72 1017.0
20260509040016 16 42 4.8 8.0 0.00 0.00 0.00 72 1017.0
20260509035515 16 340 0.0 4.8 0.00 0.00 0.00 71 1016.9
20260509035013 16 75 0.0 6.4 0.00 0.00 0.00 71 1016.6
20260509034512 16 71 0.0 6.4 0.00 0.00 0.00 70 1016.6
20260509034011 16 43 3.2 9.7 0.00 0.00 0.00 71 1016.6
20260509033509 16 71 4.8 9.7 0.00 0.00 0.00 72 1016.6
20260509033009 16 67 4.8 8.0 0.00 0.00 0.00 72 1016.7
20260509032509 16 15 1.6 6.4 0.00 0.00 0.00 72 1016.6
20260509032009 16 147 1.6 4.8 0.00 0.00 0.00 72 1016.6
20260509031507 16 91 1.6 9.7 0.00 0.00 0.00 73 1016.5
20260509031009 15 95 4.8 9.7 0.00 0.00 0.00 74 1016.6
20260509030507 15 81 4.8 9.7 0.00 0.00 0.00 75 1016.6
20260509030008 15 46 4.8 9.7 0.00 0.00 0.00 76 1016.7
20260509025508 15 34 4.8 9.7 0.00 0.00 0.00 74 1016.7
20260509025006 16 10 6.4 9.7 0.00 0.00 0.00 74 1016.6
20260509024506 16 92 1.6 6.4 0.00 0.00 0.00 74 1016.3
20260509024005 15 82 1.6 8.0 0.00 0.00 0.00 75 1016.5
20260509023506 15 71 1.6 14.5 0.00 0.00 0.00 76 1016.5
20260509023004 15 49 9.7 14.5 0.00 0.00 0.00 77 1016.4
20260509022503 15 355 6.4 12.9 0.00 0.00 0.00 77 1016.5
20260509022003 15 28 9.7 12.9 0.00 0.00 0.00 76 1016.5
20260509021502 15 55 1.6 9.7 0.00 0.00 0.00 77 1016.5
20260509021003 15 42 8.0 9.7 0.00 0.00 0.00 77 1016.7
20260509020601 15 34 4.8 9.7 0.00 0.00 0.00 76 1016.6
20260509020059 15 17 4.8 6.4 0.00 0.00 0.00 75 1016.6
20260509015559 16 40 1.6 4.8 0.00 0.00 0.00 75 1016.4
20260509015058 16 39 1.6 4.8 0.00 0.00 0.00 75 1016.6
20260509014556 16 54 0.0 6.4 0.00 0.00 0.00 75 1016.8
20260509014056 16 45 3.2 6.4 0.00 0.00 0.00 74 1016.8
20260509013557 16 49 1.6 6.4 0.00 0.00 0.00 73 1016.8
20260509013156 16 63 1.6 8.0 0.00 0.00 0.00 74 1017.0
20260509012554 16 67 4.8 9.7 0.00 0.00 0.00 74 1017.0
20260509012054 16 78 3.2 6.4 0.00 0.00 0.00 75 1017.2
20260509011553 16 72 4.8 8.0 0.00 0.00 0.00 75 1017.3
20260509011053 16 56 4.8 8.0 0.00 0.00 0.00 76 1017.3
20260509010556 16 44 3.2 6.4 0.00 0.00 0.00 76 1017.5
20260509010051 16 44 3.2 6.4 0.00 0.00 0.00 75 1017.5
20260509005550 16 52 0.0 4.8 0.00 0.00 0.00 74 1017.6
20260509005049 16 61 0.0 0.0 0.00 0.00 0.00 74 1017.6
20260509004547 16 60 0.0 3.2 0.00 0.00 0.00 74 1017.6
20260509004046 16 59 0.0 4.8 0.00 0.00 0.00 73 1017.6
20260509003546 16 59 1.6 4.8 0.00 0.00 0.00 73 1017.7
20260509003046 17 60 0.0 6.4 0.00 0.00 0.00 73 1017.8
20260509002545 17 63 1.6 6.4 0.00 0.00 0.00 73 1017.7
20260509002044 17 51 0.0 1.6 0.00 0.00 0.00 73 1017.9
20260509001545 16 48 0.0 1.6 0.00 0.00 0.00 73 1018.1
20260509001042 16 48 0.0 4.8 0.00 0.00 0.00 74 1018.2
20260509000546 16 48 1.6 6.4 0.00 0.00 0.00 74 1018.0
20260509000041 17 45 3.2 6.4 0.00 0.00 0.00 73 1018.2
20260508235539 17 49 3.2 6.4 0.00 0.00 0.00 72 1018.1
20260508235041 17 64 0.0 0.0 0.00 0.00 0.00 71 1018.1
20260508234538 17 67 0.0 0.0 0.00 0.00 0.00 71 1018.1
20260508234041 17 59 0.0 0.0 0.00 0.00 0.00 71 1018.2
20260508233537 17 59 0.0 0.0 0.00 0.00 0.00 71 1018.2
20260508233047 17 58 0.0 0.0 0.00 0.00 0.00 71 1018.3
20260508232535 17 57 0.0 0.0 0.00 0.00 0.00 70 1018.5
20260508232034 17 57 0.0 1.6 0.00 0.00 0.00 70 1018.6
20260508231537 17 57 0.0 6.4 0.00 0.00 0.00 70 1018.5
20260508231036 17 55 0.0 9.7 0.00 0.00 0.00 70 1018.6
20260508230533 18 37 4.8 9.7 0.00 0.00 0.00 69 1018.7
20260508230032 18 259 1.6 6.4 0.00 0.00 0.00 69 1018.7
20260508225533 18 259 1.6 6.4 0.00 0.00 0.00 69 1018.7
20260508225031 18 245 4.8 8.0 0.00 0.00 0.00 68 1018.7
20260508224530 18 241 4.8 8.0 0.00 0.00 0.00 69 1018.7
20260508224030 18 242 4.8 6.4 0.00 0.00 0.00 68 1018.7
20260508223529 18 246 3.2 6.4 0.00 0.00 0.00 68 1018.7
20260508223029 18 315 3.2 6.4 0.00 0.00 0.00 68 1018.8
20260508222529 18 329 3.2 6.4 0.00 0.00 0.00 67 1018.8
20260508222028 18 316 4.8 6.4 0.00 0.00 0.00 67 1018.9
20260508221527 18 267 3.2 9.7 0.00 0.00 0.00 66 1018.8
20260508221029 18 237 4.8 9.7 0.00 0.00 0.00 65 1018.7
20260508220528 18 261 6.4 9.7 0.00 0.00 0.00 65 1018.8
20260508220026 18 252 6.4 8.0 0.00 0.00 0.00 65 1018.9
20260508215525 18 254 3.2 6.4 0.00 0.00 0.00 64 1018.9
20260508215024 18 306 3.2 8.0 0.00 0.00 0.00 65 1018.9
20260508214527 18 303 3.2 6.4 0.00 0.00 0.00 63 1018.9
20260508214024 18 261 3.2 9.7 0.00 0.00 0.00 63 1018.8
20260508213523 18 263 3.2 12.9 0.00 0.00 0.00 63 1018.9
20260508213023 18 271 4.8 12.9 0.00 0.00 0.00 63 1018.9
20260508212522 18 249 6.4 11.3 0.00 0.00 0.00 62 1019.0
20260508212023 18 258 4.8 11.3 0.00 0.00 0.00 62 1018.9
20260508211529 18 276 4.8 11.3 0.00 0.00 0.00 61 1019.0
20260508211028 19 253 4.8 12.9 0.00 0.00 0.00 61 1018.9
20260508210519 19 253 4.8 16.1 0.00 0.00 0.00 60 1018.7
20260508210018 19 212 8.0 12.9 0.00 0.00 0.00 60 1018.6
20260508205517 19 215 6.4 14.5 0.00 0.00 0.00 60 1018.8
20260508205019 19 247 4.8 14.5 0.00 0.00 0.00 59 1018.9
20260508204517 19 255 9.7 14.5 0.00 0.00 0.00 58 1019.1
20260508204016 19 250 8.0 14.5 0.00 0.00 0.00 57 1019.0
20260508203516 19 240 8.0 14.5 0.00 0.00 0.00 57 1018.9
20260508203017 19 265 9.7 14.5 0.00 0.00 0.00 56 1019.0
20260508202516 19 225 8.0 12.9 0.00 0.00 0.00 56 1018.9
20260508202016 19 259 3.2 8.0 0.00 0.00 0.00 56 1019.0
20260508201516 19 341 3.2 9.7 0.00 0.00 0.00 57 1019.0
20260508201016 19 10 6.4 9.7 0.00 0.00 0.00 56 1018.9
20260508200516 20 313 0.0 6.4 0.00 0.00 0.00 55 1018.6
20260508200016 20 292 1.6 11.3 0.00 0.00 0.00 55 1018.5
20260508195515 20 315 4.8 11.3 0.00 0.00 0.00 54 1018.4